Vertical_Velocity
-4 -7 -7 -4 -4 -6 -10 -4 -1 -4 -11 -10 -8 -6 -5 -4 -4 -3 -2 -1 -1 -2 -3 -3 -3 -2 -1 -0 -0 -0 -1 -1 -2 -2 -2 -3 -3 -4 -5 -7 -7 -6 -5 -5 -4 -5 -6 -8 -7 -6 -4 -3 -1 1 2 -1 -3 -3 2 4 4 1 -4 -8 -9 -9 -5 2 7 9 7 9 11 11 9 6 5 3 2 2 1 0 -0 -0 -0 -0
-7 -7 -6 -3 -3 -5 -12 -7 -1 1 -5 -9 -9 -7 -6 -6 -6 -6 -4 -2 -0 -0 -1 -3 -3 -3 -2 -1 -1 -0 -1 -1 -2 -2 -2 -2 -2 -3 -3 -4 -5 -6 -6 -6 -5 -5 -6 -7 -6 -5 -4 -2 -0 1 2 -1 -3 -2 4 5 4 2 -3 -7 -7 -7 -6 -2 4 7 5 4 6 9 11 11 10 7 4 3 2 0 -1 -2 -1 -2
-6 -7 -7 -4 -3 -4 -9 -10 -6 -1 -1 -5 -6 -6 -5 -6 -6 -7 -6 -5 -3 -1 -0 -1 -3 -3 -3 -2 -1 -1 -1 -1 -1 -1 -1 -1 -2 -2 -3 -3 -4 -5 -6 -6 -5 -4 -3 -3 -3 -2 -2 -0 1 2 1 -2 -2 -0 4 4 3 1 -2 -5 -5 -4 -3 -1 2 5 6 3 3 5 9 13 12 9 5 4 3 1 -1 -2 -2 -3
-0 -3 -7 -6 -5 -4 -5 -6 -6 -5 -2 -4 -5 -5 -3 -4 -5 -6 -5 -4 -4 -3 -2 -1 -1 -1 -2 -2 -1 -1 -1 -1 -1 -1 -1 -2 -2 -3 -3 -4 -5 -5 -6 -7 -6 -5 -4 -3 -2 -1 -0 1 2 2 -0 -1 0 2 3 1 0 -1 -3 -4 -3 -2 -0 1 3 4 6 4 3 4 6 12 12 9 4 4 2 1 -1 -2 -2 -2
1 1 -4 -4 -6 -8 -7 -4 -4 -4 -5 -5 -4 -4 -3 -3 -3 -4 -5 -4 -3 -3 -4 -2 -0 0 -1 -2 -2 -1 -1 -2 -2 -2 -2 -2 -2 -3 -3 -3 -3 -4 -5 -5 -5 -5 -5 -5 -4 -3 -1 1 2 2 0 2 3 3 0 -0 -1 -2 -4 -4 -2 -0 1 3 4 5 6 5 5 6 8 12 11 6 3 3 2 0 -1 -2 -2 -1
0 3 1 -1 -5 -7 -9 -6 -4 -3 -5 -7 -6 -4 -3 -3 -3 -4 -4 -3 -3 -3 -5 -3 -1 0 0 -1 -1 -1 -1 -2 -2 -2 -2 -2 -2 -2 -2 -1 -1 -0 -1 -3 -4 -5 -7 -7 -7 -5 -3 -1 0 1 2 6 6 2 -2 -1 -2 -3 -4 -4 -3 -0 2 4 5 6 6 6 6 8 12 13 9 4 3 3 2 -0 -1 -1 -1 -0
0 3 4 -0 -4 -6 -6 -5 -3 -2 -3 -7 -9 -8 -5 -4 -3 -2 -1 -0 -1 -3 -6 -4 -2 -1 0 -0 -0 -1 -1 -1 -2 -2 -2 -2 -1 -1 -0 0 1 1 -0 -3 -5 -7 -8 -8 -8 -7 -5 -2 -1 0 3 7 5 1 -3 -2 -2 -3 -4 -4 -3 -1 2 4 4 5 5 5 5 6 11 10 6 3 3 2 1 -0 -1 -0 -0 0
2 1 2 -1 -4 -7 -7 -5 -2 -0 -0 -4 -7 -10 -11 -8 -5 -2 -0 1 -0 -3 -6 -7 -5 -3 -1 0 0 -0 -1 -2 -2 -2 -2 -2 -1 0 1 1 1 -1 -3 -6 -7 -8 -8 -7 -7 -6 -5 -2 -0 1 1 5 3 -2 -5 -3 -2 -2 -4 -4 -3 -0 3 3 3 3 3 3 2 2 4 4 3 2 3 1 -0 -1 -0 -0 -0 0
5 -0 -4 -3 -3 -5 -8 -9 -5 0 2 -1 -3 -6 -9 -9 -7 -5 -3 -2 -2 -2 -3 -7 -8 -7 -3 -0 1 1 -0 -1 -2 -2 -3 -2 -1 -0 0 -1 -2 -4 -6 -7 -7 -8 -7 -7 -6 -6 -6 -3 -1 -0 0 2 0 -3 -6 -4 -3 -3 -5 -4 -2 1 4 3 3 2 2 1 1 -0 -1 0 1 2 2 -0 -1 -1 1 0 0 0
3 -2 -6 -5 -2 -0 -2 -8 -8 -4 1 1 -0 -1 -1 -2 -4 -6 -9 -9 -6 -2 -0 -3 -7 -9 -8 -3 0 1 0 -0 -1 -1 -1 -1 -1 -2 -3 -5 -5 -5 -5 -5 -6 -7 -8 -8 -7 -8 -8 -7 -5 -3 -1 1 -0 -3 -6 -5 -4 -4 -5 -4 -2 1 4 4 3 2 1 0 -1 -1 -2 -1 0 1 2 -0 -1 -0 1 1 0 0
-4 -5 -3 -5 -4 -2 1 -3 -6 -6 -2 -1 -1 -1 1 3 2 -2 -9 -13 -11 -6 -2 -2 -3 -5 -8 -7 -4 -1 0 -1 -1 -1 -0 -0 -2 -3 -5 -4 -4 -3 -2 -4 -6 -8 -9 -8 -8 -8 -10 -9 -8 -6 -3 -2 -2 -3 -5 -5 -5 -4 -4 -4 -3 -0 3 4 4 2 1 -0 -2 -2 -3 -2 -1 0 1 0 0 1 1 1 1 0
-5 -5 -3 -4 -4 -4 -3 -4 -4 -4 -2 -1 -3 -5 -5 -1 1 0 -3 -9 -10 -9 -6 -5 -4 -2 -2 -5 -5 -4 -2 -3 -3 -2 -2 -1 -1 -1 -2 -2 -2 -1 -1 -4 -6 -8 -9 -8 -7 -8 -8 -9 -9 -8 -7 -5 -4 -3 -3 -5 -5 -5 -4 -6 -5 -2 2 4 4 3 1 -1 -3 -3 -3 -3 -2 -0 1 1 1 1 1 0 0 0
-4 -3 -2 -3 -4 -4 -4 -5 -5 -5 -3 -0 -1 -3 -6 -5 -2 -0 -1 -4 -5 -5 -6 -9 -9 -6 -1 -0 -2 -3 -3 -3 -3 -3 -3 -2 -0 1 -0 -1 -1 -1 -1 -4 -6 -8 -7 -7 -7 -8 -6 -5 -6 -7 -7 -6 -5 -3 -1 -3 -4 -6 -7 -8 -7 -4 1 4 4 3 2 -1 -3 -5 -5 -4 -2 -1 1 2 2 2 0 -1 -1 -0
-4 -3 -3 -4 -4 -4 -4 -4 -4 -4 -2 -0 0 -1 -3 -4 -3 -2 -1 -3 -3 -4 -4 -7 -9 -9 -4 -1 1 1 -0 -2 -3 -4 -3 -2 1 1 0 -2 -2 -1 -0 -3 -5 -6 -4 -5 -7 -9 -6 -3 -2 -3 -4 -6 -5 -4 -1 -1 -2 -4 -7 -9 -8 -4 1 4 4 4 3 0 -3 -6 -6 -4 -2 -1 1 3 2 1 -0 -1 -2 -1
-2 -2 -3 -5 -6 -5 -4 -3 -3 -2 -1 0 0 -1 -4 -5 -4 -2 -0 -2 -4 -6 -5 -7 -9 -8 -4 -0 2 3 2 -1 -3 -5 -6 -3 1 3 1 -3 -3 -2 -1 -3 -4 -4 -2 -4 -7 -9 -6 -3 -1 -1 -2 -4 -5 -4 -2 0 1 -0 -2 -6 -7 -5 0 4 5 5 4 1 -3 -6 -7 -4 -2 -0 2 3 2 0 -1 -2 -2 -1
-2 -0 -1 -4 -6 -6 -4 -1 1 1 1 0 -1 -2 -4 -6 -5 -3 0 -2 -4 -6 -5 -7 -9 -10 -8 -1 3 5 2 -1 -3 -5 -8 -8 -3 3 3 -2 -4 -4 -1 -2 -3 -4 -4 -5 -7 -7 -6 -4 -2 -1 -1 -4 -5 -4 -3 -0 2 2 2 -2 -5 -5 0 5 6 5 4 1 -3 -6 -7 -4 -2 -0 2 3 2 -0 -2 -2 -1 -0
-1 -0 -1 -2 -4 -5 -3 2 4 4 1 -1 -3 -3 -2 -3 -4 -3 -1 -1 -2 -4 -4 -3 -4 -7 -13 -9 -1 5 4 -0 -4 -7 -8 -11 -5 2 6 1 -3 -4 -1 -1 -2 -4 -5 -6 -6 -5 -5 -3 -2 -1 -1 -3 -4 -4 -2 -1 0 1 1 -2 -4 -3 3 6 6 6 4 1 -2 -5 -7 -5 -2 0 2 3 2 -0 -2 -1 -1 0
-1 -0 0 -1 -3 -2 1 4 4 1 -2 -4 -4 -4 -3 -3 -2 -2 -2 -1 -1 -2 -4 -1 -1 -2 -5 -10 -7 -1 5 1 -4 -8 -10 -12 -7 -0 6 2 -1 -4 -3 -1 -2 -3 -5 -5 -4 -3 -3 -3 -2 -2 -3 -3 -4 -3 -2 -1 -1 -1 -1 -3 -3 -0 5 6 7 6 5 1 -2 -5 -6 -5 -3 -0 3 3 1 -1 -2 -1 0 1
-1 0 1 -1 -3 -4 -4 -3 -3 -4 -4 -4 -4 -4 -5 -5 -3 -1 -1 -2 -1 -1 -1 -1 -2 -3 -3 -7 -6 -3 3 2 -2 -6 -10 -13 -10 -3 6 3 -1 -3 -3 -2 -2 -2 -4 -5 -4 -3 -3 -3 -3 -4 -4 -4 -4 -3 -2 -0 -0 -1 -1 -1 -1 1 4 6 6 6 6 1 -3 -5 -5 -5 -3 -1 2 2 0 -2 -2 -0 1 2
-2 -4 -5 -5 -6 -7 -6 -3 -0 2 0 -2 -3 -3 -4 -5 -3 -2 -3 -2 -1 0 1 1 -2 -4 -4 -6 -6 -3 2 2 -0 -4 -8 -13 -11 -5 5 3 -0 -2 -2 -1 -1 -1 -3 -5 -6 -5 -4 -4 -4 -4 -4 -4 -4 -3 -2 -1 -0 0 -1 -1 -1 0 2 4 5 5 5 -0 -3 -5 -5 -5 -3 -1 3 1 -2 -4 -3 0 2 2
-4 -6 -6 -1 1 0 -3 -3 -1 0 -0 -1 -2 -2 -4 -4 -4 -4 -4 -2 -1 0 1 1 -2 -4 -3 -3 -5 -5 2 4 1 -4 -8 -13 -11 -6 4 2 -0 -2 -3 -2 -1 -1 -2 -5 -7 -7 -5 -5 -5 -5 -6 -5 -4 -2 -1 -1 -0 -0 -1 -2 -2 -0 1 3 4 5 5 -0 -4 -6 -5 -5 -3 -1 3 1 -4 -7 -5 -1 1 2
-3 -5 -5 2 6 5 2 1 1 1 1 1 -0 -2 -4 -3 -3 -4 -4 -0 0 -0 -1 -2 -3 -3 -1 -3 -6 -5 3 5 3 -0 -5 -12 -13 -9 5 3 1 -2 -4 -3 -1 -1 -3 -7 -8 -8 -6 -5 -5 -6 -7 -5 -3 -1 -0 1 0 -1 -2 -2 -1 1 1 3 4 6 6 -0 -4 -7 -6 -5 -3 -0 3 1 -4 -8 -8 -2 -0 0
5 5 6 8 7 4 -1 -3 -4 -5 -5 -4 -3 -3 -3 0 0 -1 -1 1 1 -0 -1 -1 -2 -2 -2 -2 -4 -4 0 3 4 3 1 -7 -13 -11 2 2 1 -2 -5 -3 -2 -3 -6 -8 -9 -8 -7 -7 -6 -6 -6 -4 -2 -1 -0 1 0 -1 -2 -1 1 2 2 2 4 6 6 -1 -6 -8 -8 -6 -3 0 4 1 -4 -8 -8 -3 -0 -0
14 13 9 5 1 -3 -5 -8 -10 -11 -9 -3 1 2 3 4 4 3 3 3 4 5 5 2 -2 -5 -6 -1 -1 -2 -1 3 4 4 2 -5 -10 -11 -3 1 0 -2 -5 -3 -3 -5 -8 -10 -9 -8 -8 -9 -7 -5 -4 -2 -0 -0 -1 1 0 -1 -2 -0 1 3 3 2 3 5 6 -2 -7 -9 -8 -6 -3 1 4 1 -3 -7 -8 -2 -0 -0
1 -2 -5 -5 -4 -3 -2 -2 1 6 16 25 25 20 13 11 10 9 7 6 5 4 1 -2 -5 -7 -8 -1 -0 -2 -2 3 5 5 4 -3 -8 -10 -4 1 0 -3 -7 -4 -4 -5 -9 -11 -10 -8 -8 -8 -6 -4 -2 0 0 -1 -1 1 1 -1 -2 -1 1 2 3 1 2 4 5 -3 -7 -8 -7 -5 -3 1 2 2 -2 -5 -7 -1 0 0
-4 -3 -2 -0 2 5 9 14 17 18 18 16 13 11 11 9 6 3 0 -1 -0 1 0 -2 -4 -6 -5 -2 -3 -4 -3 1 4 5 6 1 -5 -9 -5 1 1 -3 -8 -7 -5 -5 -7 -11 -11 -9 -7 -8 -5 -2 -1 1 0 -1 -1 2 1 -1 -2 -1 1 2 2 0 1 3 2 -4 -6 -6 -6 -4 -2 -0 1 2 -0 -3 -5 0 2 2
0 1 2 3 3 3 1 -1 -3 -4 -4 -2 -1 0 2 1 -1 -2 -4 -2 1 3 3 1 -2 -5 -5 -3 -3 -4 -3 -0 2 5 7 4 -1 -6 -5 -0 1 -2 -7 -8 -6 -4 -5 -10 -11 -9 -6 -6 -4 -2 -2 -1 -1 -1 1 2 0 -2 -3 -1 1 3 3 0 1 1 0 -3 -4 -4 -4 -3 -2 -0 0 3 2 1 -1 2 4 5
-1 -2 -2 -2 -2 -2 -2 -2 -2 -2 -3 -4 -3 -1 2 2 1 0 -1 1 4 5 3 1 -1 -3 -4 -4 -5 -5 -3 -2 2 5 6 5 1 -3 -4 1 2 -0 -4 -8 -7 -5 -4 -8 -9 -8 -5 -4 -2 -2 -4 -3 -1 1 2 2 0 -1 -3 -1 2 4 4 1 1 0 -0 -2 -3 -3 -3 -2 -1 -0 1 4 4 3 1 3 4 5
-2 -2 -2 -2 -2 -1 -2 -2 -3 -3 -3 -3 -2 0 3 3 3 3 1 3 4 3 -0 -1 -1 -1 -2 -4 -6 -7 -6 -3 1 4 4 5 1 -3 -1 2 3 2 -0 -6 -9 -9 -6 -7 -6 -4 -3 -2 -1 -2 -5 -2 1 2 2 1 -1 -2 -3 -1 2 5 6 3 1 1 1 -1 -1 -1 -2 -1 0 0 0 4 5 4 1 2 3 3
-1 -1 -2 -1 -1 -1 -2 -2 -3 -3 -2 -1 -0 1 1 1 0 -0 -2 0 2 1 -1 -1 -1 -1 -1 -3 -6 -9 -10 -2 2 4 3 4 -0 -3 -0 2 3 3 3 -3 -10 -14 -14 -9 -3 2 3 1 -1 -3 -4 -0 2 2 0 -2 -3 -3 -3 1 4 7 8 4 3 2 1 -0 -1 -1 -1 -0 0 1 1 4 4 2 -1 2 4 4
-2 -2 -2 -1 -1 -1 -1 -1 -1 -2 -1 -1 -1 -1 -1 -1 -2 -2 -1 0 1 1 1 -0 -0 0 1 1 -2 -7 -13 -3 3 5 4 3 -1 -3 -1 -0 1 2 5 3 -3 -11 -18 -15 -5 4 7 10 9 3 -2 -0 1 1 0 -3 -4 -3 0 4 7 7 7 6 4 2 1 -0 -1 -1 -0 0 1 1 1 4 3 -0 -3 0 3 5
-1 -1 -1 -1 -1 -1 -1 -1 -1 -1 -2 -1 -1 -1 -1 -0 -0 0 0 1 1 2 2 1 0 0 1 1 -1 -6 -13 -5 1 5 4 3 -1 -3 -1 -1 -2 -0 4 4 2 -3 -10 -16 -10 -2 -2 11 22 23 5 1 1 2 1 -1 -2 -1 3 8 7 4 3 6 5 4 3 1 0 -0 -0 -0 0 0 1 3 1 -3 -5 -2 1 2
-1 -0 -0 -1 -1 -1 -1 -1 -1 -1 -2 -2 -1 -1 -0 0 0 0 0 1 1 2 2 1 0 -0 -1 -1 -4 -7 -10 -4 2 5 4 3 -0 -2 -2 -2 -3 -3 -1 -2 -2 -3 -4 -11 -10 -8 -10 -1 19 32 22 6 0 -1 -1 0 2 4 5 8 6 3 1 6 7 7 6 5 3 1 -0 0 0 0 0 2 -0 -4 -6 -3 -1 1
-1 -1 -1 -1 -0 -0 -0 -0 -1 -1 -1 -1 -1 -1 -1 -1 -0 0 1 1 1 1 1 1 1 -0 -1 -3 -6 -8 -9 -2 3 5 4 3 1 -2 -3 -3 -3 -3 -4 -5 -6 -5 -4 -6 -7 -8 -11 -8 6 22 31 8 -1 -4 -4 -0 3 6 7 7 5 3 3 7 8 7 7 7 6 4 2 2 1 1 0 2 -0 -4 -5 -4 -1 1
-2 -2 -1 -1 -0 -0 -0 -0 -0 -1 -1 -1 -1 -1 -1 -1 -0 0 1 1 1 1 0 0 0 0 -0 -2 -5 -8 -9 -0 4 6 4 3 1 -2 -4 -4 -2 -1 -1 -4 -4 -3 -3 -4 -4 -4 -6 -10 -1 15 30 8 -2 -5 -3 0 1 3 6 6 4 2 2 5 6 5 4 4 3 2 2 2 1 0 0 2 1 -1 -3 -1 0 1
-2 -2 -1 0 0 -0 -0 -0 -0 -0 -0 -0 -0 -0 -0 -0 -0 -0 0 1 1 0 -0 -1 -1 -1 -1 -1 -4 -7 -8 -1 4 6 5 4 2 -1 -4 -4 -2 2 2 0 -0 0 -0 -2 -3 -4 -2 -7 -0 14 32 10 -2 -6 -2 -0 -1 -1 4 8 7 4 4 5 4 3 1 2 1 -1 -2 2 1 0 1 4 3 1 -0 1 4 5
-1 -1 0 1 1 1 1 0 0 0 0 0 0 1 1 0 0 -0 -0 0 0 -0 -1 -1 -1 -1 -1 -1 -3 -5 -6 -1 2 5 5 5 3 1 -3 -4 -1 3 5 2 1 1 2 -1 -4 -6 -3 -2 -0 11 40 11 -3 -6 -3 -5 -6 -5 1 7 7 7 8 7 5 2 0 1 -1 -3 -3 3 6 6 8 9 7 4 1 3 6 8
-0 0 1 1 1 1 1 1 1 1 1 1 1 1 1 1 0 0 -0 0 0 0 -0 -1 -1 -0 1 1 -0 -2 -2 -1 1 3 5 6 4 2 -2 -4 -2 2 5 4 3 2 2 1 -2 -6 -6 0 8 20 37 12 -1 -5 -6 -8 -8 -4 2 6 6 5 7 7 6 3 1 2 -1 -4 -4 6 10 12 15 14 11 8 5 7 9 11
1 1 1 2 2 2 1 1 1 1 1 1 1 1 0 0 0 0 0 1 1 1 1 0 -0 0 1 2 2 1 0 -0 0 2 4 5 4 2 0 -2 -2 -0 3 3 3 3 4 4 0 -3 -5 -2 13 31 44 14 -1 -7 -9 -6 -2 1 4 5 5 4 4 6 5 3 3 4 2 -1 -2 7 11 12 13 11 7 4 3 7 11 14
2 2 2 3 4 3 3 3 2 2 1 1 1 1 1 0 0 1 1 2 2 2 1 1 0 0 1 1 1 1 -0 -1 -0 1 3 3 4 4 2 -1 -3 -3 -1 1 1 2 3 2 -1 -3 1 2 4 17 50 23 2 -9 -8 -1 1 1 0 1 2 3 3 3 2 2 2 6 5 4 2 7 8 7 3 0 -2 -3 -3 -1 3 8
2 1 1 2 2 3 3 3 3 2 2 1 0 0 0 0 1 1 2 3 3 2 1 0 -0 -0 -0 -1 -1 -2 -2 -2 -1 1 2 3 4 4 2 -1 -3 -3 -2 -0 1 1 0 -0 -2 -2 1 3 -1 5 36 28 11 -2 1 2 -2 -5 -4 -1 -0 1 2 3 3 3 3 7 9 9 6 5 3 -0 -5 -7 -8 -6 -2 -2 -3 -5
3 2 2 1 1 2 2 3 3 3 3 2 1 0 -0 -0 0 1 2 3 3 2 1 0 -1 -1 -2 -2 -2 -2 -1 -0 1 2 3 3 3 2 -0 -1 -2 -1 0 1 0 -0 0 1 -0 -1 0 3 1 3 18 27 16 2 6 1 -4 -7 -2 -4 -2 1 2 2 4 5 5 6 8 8 6 4 2 0 -1 -4 -5 -5 -2 1 1 -2
3 3 3 3 3 3 3 3 3 3 2 2 1 1 0 0 1 1 2 2 2 2 1 1 -0 -1 -1 -2 -1 0 2 3 4 4 3 1 -1 -2 -2 -1 1 3 4 2 1 0 2 3 2 0 1 5 7 9 14 22 11 -2 -1 -5 -7 -7 -5 -7 -3 3 5 3 3 4 5 5 6 5 3 2 2 2 3 3 2 0 -1 -2 -0 2
4 3 3 2 2 2 2 2 2 3 2 1 0 0 0 1 1 1 2 3 3 3 2 2 1 1 1 -0 -0 0 2 4 5 5 3 0 -2 -3 -3 -1 2 4 5 4 3 4 6 6 3 2 4 7 6 9 25 20 8 -3 -6 -7 -6 -6 -6 -2 4 9 8 6 5 5 4 7 8 8 6 6 5 4 3 3 4 4 4 1 -1 -1
3 2 2 2 1 0 0 2 3 3 2 1 1 0 1 1 1 2 3 4 4 4 3 1 1 0 0 -0 -0 -0 0 2 3 4 5 5 3 2 0 1 3 5 6 6 6 7 8 6 5 7 12 13 13 14 21 15 5 -3 -5 -5 -5 -4 -4 3 8 10 6 5 5 4 3 5 7 9 9 8 7 6 4 2 1 2 3 2 1 -2
1 1 1 0 0 1 2 3 3 3 2 1 1 1 1 1 2 3 4 5 5 4 3 1 0 -1 -1 -1 -1 -0 -1 0 2 5 8 10 9 8 5 5 6 8 10 11 12 11 8 8 9 13 19 20 21 20 16 6 0 -2 -2 -2 -2 -0 2 5 6 5 0 -1 -0 -0 -0 3 6 8 7 5 5 6 6 3 1 -1 -2 -2 -3 -4
0 0 0 0 0 1 2 2 2 2 2 2 2 2 1 1 2 3 4 5 4 3 2 2 1 1 1 1 0 -1 -2 -2 1 4 8 10 11 10 7 6 8 11 13 14 13 12 11 12 15 19 27 26 20 12 6 2 -1 -2 -3 -1 2 6 10 13 12 9 4 -1 -4 -4 -2 4 9 10 5 2 3 5 8 9 7 3 -1 -4 -5 -4
1 1 1 0 -0 0 1 1 2 2 2 2 2 2 1 1 1 2 2 3 2 2 2 2 2 3 3 3 2 1 0 0 1 3 6 8 9 9 7 7 9 11 12 11 10 10 12 18 21 23 23 17 8 1 -1 0 -0 -2 -4 -1 3 7 12 14 14 12 9 4 -1 -4 -4 0 3 3 1 1 2 4 6 11 13 11 5 0 -2 -3
2 2 1 0 -0 -0 0 0 1 1 1 1 1 1 1 1 1 1 1 1 1 2 3 3 3 3 3 3 3 3 2 3 3 2 2 3 4 5 6 6 7 9 9 7 6 8 13 25 29 25 13 5 -2 -5 -5 -0 0 -1 -3 -1 3 7 10 10 8 5 3 3 3 3 3 1 -3 -7 -9 -4 -1 2 5 10 12 11 7 4 1 -0
2 3 2 1 0 0 0 -0 -0 0 0 0 0 0 0 0 -0 0 0 0 1 2 4 4 3 3 2 2 2 2 1 1 -0 -1 -2 -1 -0 1 1 2 2 3 3 2 3 6 12 27 33 28 14 5 -1 -2 -1 3 3 1 -2 1 5 9 12 12 8 4 1 1 2 4 7 9 8 4 -1 -4 -3 -0 5 8 8 7 5 3 3 2
2 2 2 1 1 0 -0 -0 0 0 1 1 1 0 -0 -1 -1 -1 -1 -0 1 2 4 4 3 2 2 2 1 1 1 -0 -2 -3 -3 -3 -2 -2 -1 -1 -0 0 0 1 1 4 10 22 25 21 12 6 3 2 6 6 3 -1 -4 1 7 13 16 15 12 7 4 2 1 3 5 9 11 11 7 0 -2 -1 4 6 5 4 2 1 2 3
Height
1386 1384 1382 1381 1380 1377 1375 1374 1373 1372 1370 1369 1367 1366 1365 1364 1363 1362 1362 1361 1360 1359 1358 1357 1356 1356 1355 1355 1354 1354 1354 1354 1354 1354 1354 1354 1355 1355 1355 1356 1356 1356 1356 1356 1357 1357 1358 1359 1360 1361 1362 1363 1364 1365 1366 1367 1367 1369 1370 1372 1373 1375 1376 1378 1380 1381 1382 1384 1386 1388 1391 1394 1396 1399 1401 1404 1406 1408 1411 1413 1415 1417 1419 1422 1424 1427
1385 1383 1381 1380 1378 1377 1374 1373 1372 1371 1370 1368 1367 1365 1364 1363 1362 1361 1360 1359 1359 1358 1357 1356 1355 1354 1353 1352 1352 1352 1352 1352 1352 1352 1352 1352 1352 1353 1353 1354 1354 1354 1354 1355 1355 1356 1357 1357 1358 1359 1360 1361 1362 1363 1364 1365 1365 1367 1368 1370 1372 1373 1374 1377 1378 1380 1382 1383 1385 1387 1390 1392 1394 1397 1399 1402 1404 1406 1408 1410 1412 1415 1417 1419 1422 1424
1383 1382 1380 1378 1377 1376 1373 1372 1371 1370 1369 1367 1366 1364 1363 1362 1361 1360 1359 1358 1357 1356 1355 1354 1353 1352 1351 1351 1350 1350 1350 1350 1350 1350 1350 1350 1351 1351 1352 1352 1352 1352 1353 1353 1353 1354 1355 1356 1357 1357 1358 1359 1360 1361 1362 1362 1363 1364 1366 1367 1369 1370 1372 1375 1377 1378 1380 1382 1383 1386 1388 1390 1392 1394 1397 1400 1402 1403 1406 1408 1410 1412 1415 1417 1419 1422
1382 1380 1378 1377 1376 1374 1373 1371 1370 1368 1367 1366 1365 1363 1362 1361 1360 1359 1357 1357 1356 1354 1353 1353 1352 1351 1350 1349 1348 1348 1348 1348 1348 1348 1348 1348 1349 1349 1349 1350 1350 1350 1351 1351 1352 1352 1353 1354 1355 1356 1356 1357 1358 1359 1360 1361 1362 1363 1364 1365 1367 1368 1370 1372 1374 1376 1378 1380 1382 1384 1386 1388 1390 1392 1395 1397 1399 1401 1403 1406 1408 1410 1412 1415 1417 1419
1381 1380 1377 1376 1374 1373 1371 1370 1369 1367 1366 1365 1364 1362 1361 1360 1359 1357 1356 1355 1354 1353 1352 1351 1350 1349 1348 1347 1347 1347 1346 1346 1346 1346 1346 1347 1347 1347 1347 1348 1348 1349 1349 1350 1350 1351 1352 1352 1352 1353 1354 1355 1356 1357 1358 1359 1360 1361 1362 1363 1364 1367 1368 1370 1372 1373 1375 1377 1379 1382 1384 1386 1388 1390 1392 1395 1397 1399 1401 1404 1406 1408 1411 1413 1415 1417
1379 1378 1377 1375 1374 1372 1370 1369 1368 1367 1365 1364 1362 1361 1360 1359 1357 1356 1355 1354 1353 1352 1350 1349 1348 1347 1347 1346 1345 1345 1345 1344 1344 1344 1344 1344 1345 1345 1346 1346 1347 1347 1347 1348 1348 1349 1350 1350 1350 1351 1351 1352 1353 1354 1355 1357 1358 1359 1360 1361 1363 1365 1367 1368 1370 1371 1373 1375 1377 1379 1382 1384 1386 1388 1390 1393 1395 1397 1399 1402 1404 1407 1409 1411 1413 1416
1378 1377 1376 1375 1373 1371 1370 1368 1367 1366 1365 1363 1361 1359 1358 1357 1356 1355 1354 1353 1352 1351 1349 1347 1347 1346 1345 1344 1344 1343 1343 1342 1342 1342 1342 1343 1343 1343 1344 1344 1345 1345 1345 1346 1346 1347 1347 1348 1349 1349 1349 1350 1351 1351 1352 1354 1355 1357 1358 1359 1361 1363 1365 1367 1368 1369 1371 1372 1374 1377 1379 1382 1384 1386 1388 1391 1393 1395 1397 1400 1402 1405 1407 1409 1411 1414
1376 1375 1375 1373 1372 1370 1369 1367 1366 1365 1364 1363 1361 1358 1357 1355 1355 1354 1353 1352 1351 1349 1347 1346 1344 1344 1343 1343 1342 1342 1341 1341 1340 1340 1340 1341 1341 1342 1342 1342 1342 1342 1343 1343 1344 1345 1346 1346 1347 1347 1347 1347 1348 1349 1350 1351 1353 1354 1356 1357 1359 1361 1363 1365 1366 1367 1368 1370 1372 1374 1377 1379 1382 1384 1386 1389 1391 1393 1396 1398 1400 1402 1405 1407 1409 1411
1375 1374 1373 1372 1371 1370 1367 1366 1365 1364 1364 1362 1361 1359 1357 1355 1353 1352 1351 1350 1349 1347 1346 1344 1343 1342 1341 1341 1341 1340 1340 1339 1339 1338 1338 1339 1339 1339 1340 1340 1340 1340 1340 1341 1342 1343 1344 1345 1345 1345 1345 1346 1346 1346 1347 1349 1351 1352 1354 1355 1357 1359 1361 1363 1364 1365 1367 1368 1370 1372 1374 1377 1379 1382 1384 1387 1389 1392 1394 1396 1398 1400 1402 1404 1406 1408
1375 1373 1372 1371 1370 1369 1367 1365 1363 1362 1362 1361 1360 1358 1357 1355 1353 1352 1349 1348 1347 1346 1345 1344 1342 1340 1339 1339 1339 1339 1338 1338 1337 1337 1337 1337 1337 1337 1337 1337 1337 1338 1339 1340 1341 1342 1343 1343 1343 1343 1343 1344 1344 1345 1346 1347 1349 1350 1352 1353 1355 1357 1359 1361 1362 1363 1364 1366 1368 1370 1372 1375 1377 1379 1382 1385 1387 1389 1392 1394 1396 1398 1400 1402 1404 1406
1373 1372 1371 1369 1368 1367 1366 1364 1362 1361 1361 1360 1358 1357 1357 1356 1354 1352 1349 1347 1345 1344 1343 1342 1341 1340 1338 1337 1337 1337 1337 1336 1336 1336 1336 1336 1336 1336 1336 1336 1336 1337 1337 1338 1339 1340 1341 1342 1342 1342 1342 1342 1343 1344 1345 1346 1347 1349 1350 1352 1353 1355 1357 1359 1360 1361 1362 1364 1366 1368 1370 1373 1375 1377 1380 1382 1385 1387 1390 1392 1394 1396 1398 1399 1401 1403
1372 1371 1370 1368 1367 1366 1364 1363 1362 1361 1360 1359 1357 1356 1355 1354 1353 1352 1350 1347 1345 1343 1342 1340 1339 1339 1338 1337 1336 1335 1335 1334 1334 1334 1333 1334 1334 1334 1334 1334 1334 1335 1335 1336 1337 1338 1340 1340 1341 1341 1342 1342 1342 1343 1344 1345 1346 1347 1349 1350 1352 1353 1355 1356 1357 1358 1360 1362 1363 1366 1368 1370 1373 1375 1378 1380 1383 1386 1388 1390 1392 1394 1396 1397 1399 1401
1371 1370 1368 1367 1365 1364 1363 1362 1361 1360 1359 1358 1357 1355 1354 1352 1352 1351 1349 1347 1345 1343 1341 1339 1337 1337 1336 1336 1335 1335 1334 1333 1333 1332 1332 1332 1332 1332 1332 1332 1332 1333 1333 1334 1335 1337 1338 1339 1339 1340 1340 1341 1341 1342 1343 1344 1345 1346 1347 1349 1351 1352 1353 1354 1356 1357 1358 1360 1362 1363 1366 1368 1371 1373 1376 1378 1381 1384 1386 1388 1391 1392 1394 1396 1397 1399
1369 1368 1367 1365 1364 1363 1362 1361 1360 1359 1357 1357 1356 1355 1353 1352 1351 1349 1348 1347 1345 1343 1341 1339 1337 1335 1335 1335 1335 1334 1333 1332 1331 1330 1330 1330 1330 1331 1330 1330 1330 1331 1331 1332 1333 1335 1336 1337 1337 1338 1338 1339 1340 1341 1342 1342 1343 1344 1346 1347 1349 1350 1352 1353 1354 1355 1357 1358 1359 1362 1364 1367 1369 1372 1374 1377 1379 1382 1384 1387 1389 1391 1392 1394 1396 1397
1367 1366 1365 1363 1362 1361 1360 1360 1359 1357 1356 1356 1355 1353 1352 1351 1350 1349 1347 1346 1344 1342 1340 1338 1336 1334 1333 1334 1334 1334 1333 1332 1330 1329 1328 1328 1328 1329 1329 1329 1328 1329 1329 1330 1331 1332 1334 1335 1335 1336 1336 1337 1338 1339 1340 1341 1342 1343 1344 1345 1347 1348 1350 1351 1352 1354 1355 1356 1357 1359 1362 1364 1367 1370 1372 1375 1378 1380 1382 1385 1387 1389 1391 1392 1394 1396
1366 1365 1363 1362 1360 1359 1359 1358 1357 1356 1355 1354 1353 1352 1351 1350 1349 1348 1347 1345 1343 1341 1340 1338 1335 1333 1332 1332 1333 1333 1332 1331 1329 1328 1327 1326 1327 1327 1327 1327 1327 1327 1327 1328 1329 1330 1332 1333 1333 1334 1334 1335 1336 1337 1338 1339 1340 1341 1342 1343 1344 1345 1347 1349 1350 1352 1352 1353 1355 1357 1359 1362 1365 1367 1370 1373 1376 1378 1380 1382 1385 1387 1389 1391 1393 1394
1364 1363 1362 1360 1359 1358 1357 1357 1356 1355 1354 1353 1352 1351 1350 1349 1348 1347 1346 1344 1343 1341 1340 1338 1336 1334 1331 1330 1331 1332 1331 1330 1328 1327 1325 1324 1325 1325 1326 1325 1325 1325 1325 1326 1327 1328 1330 1331 1331 1332 1332 1332 1333 1335 1336 1337 1338 1339 1340 1341 1341 1342 1344 1346 1347 1349 1350 1351 1352 1354 1357 1360 1363 1366 1368 1372 1374 1377 1378 1381 1383 1386 1387 1389 1391 1393
1362 1361 1360 1359 1357 1357 1356 1355 1354 1353 1352 1352 1351 1350 1349 1348 1347 1346 1345 1344 1342 1341 1339 1338 1337 1335 1332 1329 1328 1329 1330 1329 1327 1326 1324 1323 1322 1323 1324 1324 1323 1322 1322 1323 1325 1326 1327 1328 1328 1329 1330 1330 1331 1332 1333 1334 1336 1337 1338 1338 1339 1340 1341 1343 1345 1346 1347 1347 1349 1351 1354 1357 1361 1363 1366 1369 1372 1374 1377 1379 1382 1384 1386 1388 1390 1392
1360 1359 1358 1357 1356 1355 1354 1353 1352 1352 1351 1351 1350 1348 1347 1346 1345 1344 1343 1342 1341 1340 1339 1337 1336 1334 1332 1329 1328 1328 1329 1328 1327 1325 1323 1321 1320 1321 1322 1322 1321 1321 1321 1321 1322 1324 1325 1326 1326 1327 1327 1328 1329 1330 1331 1332 1333 1334 1335 1336 1337 1338 1339 1340 1342 1343 1344 1345 1346 1348 1351 1355 1358 1361 1364 1367 1370 1372 1375 1377 1380 1382 1384 1386 1388 1390
1358 1357 1357 1356 1354 1353 1352 1351 1351 1350 1350 1349 1348 1347 1346 1344 1343 1342 1342 1341 1340 1339 1338 1336 1334 1332 1331 1328 1327 1327 1327 1327 1327 1325 1322 1320 1319 1319 1320 1320 1319 1318 1318 1319 1320 1322 1322 1323 1323 1324 1324 1325 1326 1327 1328 1329 1331 1332 1332 1333 1334 1335 1337 1338 1339 1340 1341 1342 1343 1346 1349 1352 1356 1359 1362 1365 1368 1370 1372 1375 1378 1381 1383 1384 1386 1388
1356 1355 1354 1353 1353 1351 1350 1349 1348 1349 1348 1348 1347 1346 1344 1342 1342 1341 1340 1339 1338 1337 1336 1335 1333 1331 1330 1328 1326 1325 1327 1327 1326 1324 1322 1319 1317 1317 1318 1318 1317 1316 1316 1317 1318 1319 1320 1320 1321 1321 1322 1322 1323 1324 1326 1327 1328 1329 1329 1331 1332 1332 1334 1335 1337 1337 1339 1340 1341 1343 1346 1350 1353 1357 1360 1363 1366 1368 1370 1373 1376 1379 1381 1383 1385 1387
1354 1352 1352 1352 1351 1350 1349 1347 1347 1347 1347 1347 1345 1344 1342 1341 1340 1339 1338 1338 1337 1336 1334 1333 1332 1330 1328 1327 1325 1324 1326 1326 1326 1324 1322 1319 1316 1315 1317 1317 1316 1315 1314 1315 1316 1317 1317 1318 1318 1318 1319 1320 1321 1322 1323 1324 1324 1325 1326 1327 1329 1330 1331 1333 1334 1335 1336 1337 1339 1341 1343 1347 1351 1354 1357 1361 1363 1366 1368 1371 1374 1377 1380 1381 1383 1384
1353 1352 1351 1350 1349 1348 1347 1346 1345 1345 1345 1344 1343 1342 1340 1340 1339 1337 1337 1336 1335 1334 1332 1331 1330 1328 1327 1325 1324 1323 1324 1325 1325 1324 1322 1319 1315 1313 1315 1315 1315 1313 1312 1313 1314 1315 1315 1315 1315 1316 1317 1317 1319 1319 1320 1321 1322 1322 1323 1324 1326 1327 1329 1330 1331 1332 1334 1335 1336 1338 1341 1344 1348 1352 1355 1358 1361 1364 1366 1369 1372 1375 1378 1379 1381 1382
1352 1351 1349 1348 1347 1346 1345 1343 1343 1342 1342 1341 1340 1339 1338 1338 1337 1336 1335 1334 1333 1332 1331 1330 1328 1326 1324 1324 1323 1322 1323 1323 1323 1323 1322 1319 1316 1313 1313 1314 1313 1312 1311 1312 1312 1312 1312 1312 1313 1313 1314 1315 1316 1317 1318 1318 1319 1319 1320 1322 1323 1325 1326 1327 1328 1330 1331 1332 1334 1335 1338 1342 1346 1350 1353 1356 1359 1362 1364 1367 1370 1373 1376 1377 1379 1380
1350 1348 1347 1346 1345 1344 1343 1342 1342 1342 1342 1341 1340 1339 1338 1337 1336 1335 1334 1333 1332 1332 1330 1328 1327 1324 1322 1322 1322 1321 1321 1322 1322 1322 1321 1318 1315 1312 1312 1312 1312 1311 1309 1310 1311 1311 1310 1310 1311 1311 1312 1313 1314 1314 1315 1316 1316 1317 1318 1320 1321 1322 1323 1325 1326 1327 1328 1329 1331 1333 1336 1340 1344 1347 1351 1354 1357 1359 1362 1364 1367 1371 1374 1375 1377 1378
1347 1346 1345 1343 1343 1342 1342 1342 1341 1341 1340 1339 1338 1337 1337 1336 1335 1334 1333 1332 1331 1330 1329 1328 1325 1323 1322 1321 1320 1319 1319 1320 1320 1320 1319 1317 1314 1312 1311 1312 1311 1310 1308 1308 1309 1309 1308 1308 1308 1309 1310 1310 1311 1312 1313 1313 1314 1314 1316 1317 1319 1320 1321 1322 1323 1325 1326 1327 1328 1331 1334 1337 1342 1345 1349 1352 1355 1357 1360 1362 1366 1369 1372 1373 1375 1377
1345 1343 1342 1341 1340 1339 1338 1337 1337 1337 1336 1336 1336 1336 1335 1334 1333 1332 1331 1330 1330 1330 1329 1327 1324 1322 1320 1319 1318 1318 1317 1318 1318 1318 1317 1316 1313 1311 1310 1311 1311 1309 1308 1307 1307 1307 1306 1306 1306 1307 1307 1308 1309 1310 1311 1311 1311 1312 1314 1315 1316 1317 1318 1320 1321 1322 1323 1324 1326 1328 1332 1335 1339 1343 1347 1350 1353 1355 1358 1360 1364 1367 1370 1372 1374 1376
1342 1340 1339 1338 1337 1336 1335 1335 1334 1334 1333 1333 1333 1334 1333 1333 1332 1331 1329 1329 1328 1328 1327 1325 1323 1322 1320 1318 1317 1316 1316 1316 1316 1316 1315 1314 1313 1311 1309 1310 1310 1309 1307 1305 1304 1303 1303 1303 1304 1305 1306 1306 1307 1308 1308 1308 1309 1311 1312 1313 1314 1316 1317 1318 1318 1319 1320 1322 1323 1326 1329 1333 1337 1341 1345 1348 1351 1353 1356 1359 1362 1365 1368 1371 1372 1374
1339 1337 1336 1335 1334 1333 1333 1332 1331 1331 1330 1330 1331 1331 1331 1331 1330 1328 1327 1327 1327 1326 1325 1323 1322 1321 1319 1317 1316 1315 1314 1314 1314 1314 1314 1313 1312 1310 1308 1308 1308 1307 1306 1303 1301 1300 1301 1301 1302 1303 1304 1305 1306 1306 1306 1307 1308 1309 1310 1311 1312 1314 1315 1316 1316 1317 1318 1319 1321 1324 1328 1332 1336 1339 1343 1346 1349 1352 1355 1357 1360 1363 1366 1369 1371 1372
1337 1336 1335 1333 1332 1332 1331 1330 1329 1328 1328 1328 1328 1328 1328 1327 1327 1326 1325 1324 1324 1324 1323 1322 1321 1320 1319 1317 1316 1313 1312 1313 1314 1314 1313 1312 1310 1308 1307 1307 1307 1306 1305 1303 1300 1298 1297 1298 1300 1302 1302 1304 1304 1304 1304 1305 1306 1307 1308 1309 1310 1311 1312 1313 1314 1315 1316 1317 1320 1323 1327 1331 1334 1338 1341 1344 1347 1350 1353 1356 1358 1361 1364 1367 1369 1371
1335 1334 1333 1332 1331 1330 1329 1328 1327 1327 1326 1326 1326 1325 1325 1324 1324 1323 1323 1323 1323 1322 1322 1321 1320 1319 1319 1318 1316 1313 1311 1312 1313 1313 1312 1311 1309 1307 1307 1306 1306 1305 1305 1303 1302 1299 1297 1296 1297 1299 1301 1302 1302 1302 1302 1303 1304 1305 1306 1307 1308 1309 1310 1311 1312 1312 1314 1316 1319 1322 1326 1330 1333 1336 1339 1342 1345 1348 1351 1354 1357 1359 1362 1365 1367 1368
1334 1333 1332 1331 1330 1329 1328 1327 1326 1325 1325 1324 1324 1323 1323 1322 1322 1322 1322 1322 1321 1321 1320 1319 1318 1317 1317 1317 1315 1313 1310 1310 1311 1312 1311 1310 1308 1307 1306 1306 1305 1304 1304 1304 1304 1303 1301 1297 1297 1297 1297 1298 1300 1302 1301 1301 1302 1302 1303 1304 1306 1307 1308 1309 1309 1310 1312 1315 1318 1322 1325 1328 1332 1335 1338 1341 1344 1347 1349 1352 1354 1357 1360 1362 1364 1366
1334 1332 1331 1330 1329 1328 1327 1326 1325 1324 1323 1323 1322 1322 1322 1321 1321 1320 1320 1320 1319 1319 1318 1317 1317 1316 1315 1314 1313 1311 1309 1309 1310 1311 1310 1309 1307 1306 1306 1306 1305 1304 1304 1305 1305 1305 1303 1300 1297 1296 1295 1295 1297 1300 1300 1299 1300 1301 1301 1302 1303 1305 1306 1307 1308 1309 1311 1313 1317 1320 1324 1327 1331 1333 1336 1339 1342 1345 1348 1350 1352 1355 1357 1359 1361 1363
1333 1332 1330 1329 1328 1327 1326 1325 1324 1323 1322 1322 1321 1321 1320 1320 1319 1319 1318 1318 1317 1317 1317 1316 1315 1314 1313 1312 1311 1309 1308 1308 1309 1310 1309 1308 1307 1306 1305 1305 1305 1305 1304 1304 1304 1304 1302 1300 1298 1297 1295 1293 1294 1296 1298 1297 1297 1298 1299 1300 1301 1302 1303 1305 1306 1308 1310 1312 1315 1318 1322 1326 1329 1332 1335 1338 1341 1343 1346 1348 1350 1352 1355 1357 1359 1361
1332 1331 1329 1328 1327 1326 1325 1324 1323 1322 1322 1321 1320 1320 1319 1318 1318 1317 1317 1317 1316 1315 1315 1314 1313 1313 1312 1311 1309 1307 1306 1307 1308 1309 1308 1308 1307 1306 1305 1304 1304 1304 1304 1303 1303 1302 1300 1299 1298 1297 1296 1293 1292 1293 1296 1295 1295 1296 1297 1298 1299 1301 1302 1304 1305 1307 1308 1311 1313 1316 1320 1323 1327 1330 1333 1336 1339 1342 1344 1346 1349 1351 1353 1355 1357 1358
1332 1330 1329 1328 1327 1326 1325 1324 1323 1322 1321 1320 1319 1319 1318 1317 1317 1316 1316 1315 1315 1314 1313 1313 1312 1311 1310 1309 1308 1306 1305 1306 1307 1307 1307 1307 1307 1305 1304 1303 1302 1302 1302 1301 1301 1300 1299 1297 1296 1295 1294 1291 1290 1291 1293 1293 1293 1294 1296 1298 1299 1300 1301 1302 1304 1305 1307 1310 1312 1315 1318 1321 1325 1328 1331 1334 1337 1340 1342 1345 1347 1350 1352 1354 1356 1357
1331 1330 1328 1327 1326 1325 1324 1323 1322 1321 1320 1319 1318 1318 1317 1316 1316 1315 1314 1314 1313 1313 1312 1312 1311 1310 1309 1308 1307 1305 1305 1305 1305 1306 1306 1306 1306 1304 1302 1301 1300 1301 1300 1299 1298 1297 1297 1296 1295 1293 1292 1289 1288 1290 1292 1292 1292 1293 1295 1296 1297 1298 1300 1301 1302 1304 1306 1308 1310 1313 1316 1319 1322 1326 1329 1333 1336 1339 1342 1344 1346 1349 1351 1353 1355 1357
1331 1330 1328 1327 1326 1325 1323 1322 1322 1320 1320 1319 1318 1317 1316 1315 1315 1314 1313 1313 1312 1312 1311 1310 1309 1308 1307 1307 1306 1304 1304 1303 1304 1304 1304 1305 1304 1303 1301 1299 1298 1298 1298 1298 1297 1296 1295 1294 1293 1292 1290 1287 1288 1290 1292 1290 1290 1291 1292 1293 1295 1296 1298 1299 1300 1302 1304 1306 1309 1312 1314 1317 1321 1324 1327 1331 1334 1337 1340 1343 1345 1347 1350 1352 1355 1357
1331 1329 1328 1327 1326 1324 1323 1322 1321 1320 1319 1318 1317 1316 1315 1314 1314 1313 1312 1312 1311 1311 1310 1309 1308 1307 1306 1305 1304 1303 1303 1302 1302 1302 1303 1302 1302 1301 1300 1298 1297 1296 1296 1296 1295 1294 1293 1292 1291 1289 1287 1285 1286 1289 1291 1289 1288 1289 1290 1292 1293 1295 1296 1297 1298 1300 1302 1304 1307 1310 1313 1316 1319 1322 1325 1328 1331 1334 1336 1339 1342 1345 1348 1351 1353 1356
1331 1329 1328 1327 1325 1324 1323 1322 1321 1320 1318 1317 1317 1315 1314 1313 1312 1312 1311 1311 1310 1310 1309 1308 1307 1306 1304 1304 1303 1302 1302 1301 1301 1301 1301 1300 1300 1299 1298 1297 1296 1295 1294 1293 1292 1292 1291 1289 1287 1286 1284 1282 1282 1284 1287 1287 1287 1287 1289 1291 1292 1293 1293 1295 1297 1298 1300 1302 1305 1308 1311 1314 1317 1320 1322 1325 1328 1330 1332 1335 1338 1342 1345 1347 1350 1353
1331 1329 1327 1326 1325 1324 1322 1322 1320 1319 1318 1317 1316 1315 1313 1312 1312 1311 1310 1310 1309 1308 1307 1307 1306 1304 1303 1302 1302 1301 1301 1300 1299 1299 1299 1299 1298 1298 1297 1296 1295 1293 1292 1291 1290 1289 1288 1287 1285 1283 1281 1281 1280 1281 1284 1285 1285 1286 1287 1288 1289 1290 1291 1293 1295 1297 1299 1301 1304 1306 1309 1312 1315 1318 1321 1323 1326 1328 1331 1333 1336 1339 1343 1345 1347 1349
1331 1329 1327 1326 1324 1323 1322 1321 1320 1319 1318 1317 1315 1314 1313 1312 1311 1310 1309 1308 1308 1307 1307 1306 1305 1303 1302 1302 1301 1300 1299 1299 1298 1298 1297 1297 1297 1296 1295 1294 1293 1292 1291 1289 1287 1286 1285 1283 1282 1280 1279 1280 1280 1280 1282 1284 1284 1285 1286 1286 1287 1289 1291 1292 1294 1295 1297 1300 1302 1305 1307 1310 1313 1316 1319 1322 1325 1327 1330 1333 1335 1338 1341 1344 1346 1347
1331 1329 1327 1326 1324 1323 1322 1321 1320 1318 1317 1316 1315 1313 1312 1311 1310 1309 1308 1307 1307 1306 1306 1305 1304 1303 1302 1301 1300 1299 1298 1297 1297 1297 1296 1296 1296 1295 1294 1292 1291 1290 1289 1287 1285 1283 1282 1281 1280 1279 1278 1278 1278 1279 1281 1283 1283 1283 1284 1285 1287 1290 1292 1292 1293 1294 1296 1298 1301 1303 1306 1309 1311 1314 1317 1320 1323 1326 1329 1332 1335 1337 1339 1342 1344 1346
1331 1329 1327 1326 1324 1323 1322 1321 1319 1318 1317 1316 1314 1313 1312 1311 1309 1308 1307 1307 1306 1306 1305 1304 1303 1302 1301 1299 1298 1297 1297 1296 1296 1295 1295 1295 1295 1294 1293 1292 1290 1288 1287 1285 1283 1281 1278 1278 1278 1278 1277 1277 1277 1277 1280 1280 1280 1281 1282 1285 1287 1288 1288 1289 1290 1292 1295 1297 1300 1302 1305 1307 1310 1313 1316 1319 1322 1325 1328 1331 1334 1337 1339 1341 1342 1345
1330 1329 1327 1326 1324 1322 1321 1320 1319 1318 1317 1316 1314 1313 1312 1310 1309 1308 1307 1306 1306 1305 1304 1303 1302 1301 1300 1298 1297 1296 1295 1295 1294 1294 1294 1294 1294 1293 1292 1291 1288 1287 1285 1283 1282 1279 1278 1277 1277 1276 1275 1275 1276 1277 1278 1278 1278 1279 1281 1283 1285 1286 1286 1287 1288 1290 1292 1295 1298 1301 1303 1306 1308 1311 1314 1317 1321 1323 1326 1329 1332 1335 1337 1340 1342 1344
1330 1328 1327 1325 1324 1322 1321 1320 1319 1318 1317 1316 1314 1313 1312 1310 1308 1307 1306 1306 1305 1304 1303 1303 1302 1301 1299 1298 1297 1295 1294 1293 1293 1292 1292 1292 1292 1291 1290 1289 1287 1285 1283 1282 1280 1278 1276 1276 1274 1273 1273 1274 1275 1276 1276 1276 1277 1278 1280 1282 1284 1285 1286 1287 1288 1289 1291 1293 1296 1298 1302 1305 1307 1310 1312 1316 1319 1322 1325 1328 1331 1333 1336 1338 1340 1343
1330 1329 1327 1326 1324 1323 1322 1320 1319 1318 1317 1316 1314 1313 1311 1310 1308 1307 1306 1305 1304 1303 1303 1302 1302 1300 1299 1298 1296 1295 1293 1292 1290 1289 1288 1288 1287 1287 1286 1285 1283 1282 1281 1279 1277 1276 1275 1274 1272 1271 1272 1273 1274 1274 1275 1276 1277 1279 1280 1281 1282 1283 1283 1285 1286 1288 1290 1292 1294 1297 1300 1304 1307 1309 1311 1315 1319 1322 1326 1328 1330 1332 1334 1337 1339 1342
1331 1329 1327 1326 1324 1323 1322 1320 1319 1318 1317 1316 1314 1313 1312 1310 1308 1307 1305 1304 1303 1302 1302 1301 1300 1299 1298 1297 1296 1294 1292 1290 1288 1286 1284 1283 1283 1282 1282 1281 1280 1278 1277 1276 1274 1274 1273 1272 1271 1271 1272 1272 1272 1274 1276 1277 1277 1278 1278 1279 1279 1279 1280 1281 1283 1285 1288 1291 1293 1296 1299 1302 1305 1307 1310 1314 1318 1322 1325 1328 1330 1332 1334 1336 1338 1342
1331 1330 1328 1327 1325 1323 1322 1321 1320 1318 1317 1316 1314 1313 1312 1310 1309 1307 1306 1304 1303 1302 1301 1300 1299 1298 1297 1296 1295 1293 1292 1289 1287 1285 1283 1281 1280 1279 1279 1279 1278 1277 1275 1274 1272 1272 1272 1272 1271 1270 1271 1272 1273 1274 1275 1276 1276 1276 1277 1277 1277 1278 1278 1280 1282 1284 1287 1290 1293 1296 1299 1301 1303 1306 1309 1312 1316 1320 1323 1326 1328 1331 1333 1336 1338 1341
1332 1330 1329 1327 1326 1324 1323 1322 1320 1319 1318 1316 1315 1314 1312 1311 1309 1308 1306 1305 1303 1302 1301 1300 1299 1297 1296 1295 1294 1293 1291 1289 1287 1286 1284 1282 1280 1279 1278 1277 1277 1276 1275 1273 1272 1272 1272 1272 1271 1270 1271 1272 1273 1274 1274 1274 1274 1275 1276 1277 1277 1278 1278 1279 1281 1283 1286 1289 1292 1295 1298 1302 1304 1307 1309 1311 1314 1318 1321 1324 1327 1329 1332 1335 1338 1341
1332 1331 1329 1328 1326 1325 1323 1322 1321 1320 1319 1317 1316 1314 1313 1312 1310 1309 1307 1305 1304 1302 1301 1300 1299 1298 1297 1296 1295 1293 1292 1291 1289 1287 1286 1284 1282 1280 1279 1278 1277 1276 1275 1274 1273 1272 1272 1272 1271 1270 1271 1272 1274 1275 1275 1275 1275 1276 1277 1277 1277 1277 1277 1278 1279 1281 1284 1287 1291 1294 1297 1301 1303 1306 1307 1309 1312 1316 1319 1322 1325 1328 1331 1334 1337 1341